Terug naar catalogus

HULIANWANG DIGUI-155

ActiefCommunicatieLEO
NORAD 68129·PAYLOAD·🇨🇳 China

Gelanceerd Mar 12, 2026 vanaf Wenchang Space Launch Site

Loading…

Volgende Passages (komende 24 uur)

TLE

VersSource: Space-Track

Epoch: Sep 14, 2026, 22:02 UTC

1 68129U 26047A   26257.91810085 -.00000097  00000-0  58381-4 0  9995
2 68129  50.0023  94.5552 0001251  68.6315 291.4690 13.29329536 25007

Volg HULIANWANG DIGUI-155 in realtime met AllMySat

Download on the App Store